Home   Weather   Pécs   Past weeks

Flag for Hungary Past Weather in Pécs, Hungary — Yesterday and Last 2 Weeks

Now
46 °F

Sunny.


Feels Like: 46 °F
Forecast: 40 / 66 °F
Wind: 1 mph from Southeast

Location: Pecs / Pogany

Current Time: Apr 30, 2017 at 9:26:45 am

Latest Report: Apr 30, 2017 at 8:00 am


Visibility: 16 mi

Pressure: 30.10 "Hg

Humidity: 77%

Dew Point: 40 °F

Location of PécsLocation

Past Weather in Pécs — Graph

°F

Pécs Temperature Yesterday

Maximum temperature yesterday: 53 °F (at 6:00 pm)
Minimum temperature yesterday: 42 °F (at 7:00 am)
Average temperature yesterday: 47 °F

High & Low Weather Summary for the Past Weeks

 TemperatureHumidityPressure
High73 °F (Apr 28, 3:00 pm)95% (Apr 19, 8:00 pm)30.40 "Hg (Apr 19, 8:00 pm)
Low33 °F (Apr 19, 8:00 pm)31% (Apr 17, 2:00 pm)29.63 "Hg (Apr 28, 3:00 pm)
Average49 °F63%30.01 "Hg
* Reported Apr 15 8:00 am — Apr 30 8:00 am, Pécs, Weather by CustomWeather, © 2017

Note: Actual official high and low records may vary slightly from our data, if they occured in-between our weather recording intervals... More about our weather records

Advertising

Pécs Weather History for the Previous 24 Hours

Scroll right to see more
 ConditionsComfort  
Time TempWeatherWind HumidityBarometerVisibility
8:00 am
Sun, Apr 30
46 °FSunny.1 mph77%30.10 "Hg16 mi
7:00 am37 °FChilly.1 mph89%30.11 "HgN/A
6:00 am37 °FChilly.No wind88%30.10 "HgN/A
5:00 am36 °FChilly.1 mph83%30.10 "HgN/A
4:00 am41 °FQuite cool.3 mph78%30.10 "HgN/A
3:00 am43 °FQuite cool.3 mph73%30.09 "HgN/A
2:00 am42 °FQuite cool.3 mph84%30.09 "HgN/A
1:00 am42 °FQuite cool.2 mph87%30.09 "HgN/A
12:00 am44 °FQuite cool.1 mph84%30.09 "HgN/A
11:00 pm
Sat, Apr 29
45 °FCool.1 mph81%30.07 "HgN/A
10:00 pm46 °FCool.3 mph75%30.07 "HgN/A
9:00 pm46 °FCool.2 mph75%30.07 "HgN/A
8:00 pm50 °FCool.2 mph65%30.06 "HgN/A
7:00 pm53 °FOvercast.2 mph57%30.04 "Hg25 mi
6:00 pm53 °FPartly sunny.1 mph51%30.04 "Hg25 mi
5:00 pm53 °FOvercast.2 mph52%30.04 "Hg25 mi
4:00 pm51 °FOvercast.2 mph56%30.05 "Hg25 mi
3:00 pm50 °FOvercast.3 mph58%30.05 "Hg25 mi
2:00 pm50 °FOvercast.3 mph60%30.06 "Hg25 mi
1:00 pm50 °FOvercast.3 mph63%30.06 "Hg25 mi
12:00 pm48 °FOvercast.3 mph65%30.08 "Hg25 mi
11:00 am47 °FOvercast.5 mph67%30.07 "Hg25 mi
10:00 am46 °FOvercast.5 mph72%30.08 "Hg25 mi
9:00 am46 °FOvercast.3 mph72%30.06 "Hg25 mi
Weather by CustomWeather, © 2017

See weather overviewHow to use our weather pages